English version Home page |
Updated on October 21, 2017 |
|
軌道要素Epoch 2010 July 23.0 TT = JDT 2455400.5 T 2010 July 6.07903 TT MPCW q 1.8564951 (2000.0) P Q n 0.13828205 Peri. 354.24783 +0.99775577 +0.06507458 a 3.7036123 Node 2.21336 -0.03234039 +0.67459156 e 0.4987340 Incl. 24.10182 -0.05863045 +0.73531730 P 7.13 From 62 observations 2010 Aug. 6-2017 Sept. 20, mean residual 0".5.
|
光度変化m1 = 16.0 + 5 logΔ + 10.0 log r
|
軌道要素はM.P.E.C. 2017-S90に掲載されたものです。
|